Theta_e
286 285 280 281 282 281 280 279 279 281 283 281 283 283 286 288 288 288 289 290 291 292 295 295 296 299 299 303 307 306 304 305 309 327 325 325 324 326 327 328 328 330 331 332
284 280 282 283 283 281 280 280 280 282 282 281 282 282 286 287 286 288 288 289 290 292 293 294 294 295 297 298 300 302 302 303 305 308 323 328 326 326 326 327 327 328 330 331
282 281 283 282 282 281 280 279 278 277 280 281 281 283 283 286 287 288 289 290 291 291 292 292 293 293 295 296 298 299 299 301 303 305 310 314 326 326 324 324 324 325 328 330
280 282 281 281 280 281 278 281 280 278 278 279 281 279 282 284 285 286 288 289 289 291 293 292 292 292 293 294 297 299 299 300 301 302 304 306 307 316 323 323 324 324 326 327
280 280 280 279 280 282 280 282 279 278 278 276 277 277 283 282 283 285 287 288 289 291 292 291 291 292 293 295 295 297 297 298 300 300 300 302 304 308 310 318 323 323 325 328
280 283 283 281 283 282 282 280 278 278 277 276 276 276 281 282 283 285 287 288 289 290 291 291 292 293 293 295 295 295 295 295 297 298 300 301 303 305 308 309 309 322 323 324
279 279 281 282 279 281 282 279 280 279 278 278 276 275 281 284 286 286 286 287 289 290 290 290 290 291 292 293 294 294 294 293 294 296 299 301 302 304 305 308 310 310 322 323
277 280 279 281 279 276 278 277 277 272 273 275 277 272 281 285 286 287 288 287 288 289 289 290 290 291 291 292 292 293 293 292 293 294 297 300 302 304 305 308 310 312 311 323
277 278 279 280 281 280 277 276 278 274 271 269 276 278 284 285 284 285 286 287 288 288 289 289 290 291 291 292 291 291 291 292 293 294 296 298 302 302 304 306 308 311 312 321
277 276 277 279 281 281 279 280 275 275 271 270 275 274 277 282 284 286 286 286 287 288 289 289 290 291 291 291 291 291 291 291 292 294 295 297 300 301 302 305 307 311 313 314
277 276 277 277 277 277 276 276 274 275 274 271 269 277 285 283 284 284 285 286 287 288 288 289 290 290 290 291 291 291 291 291 291 293 295 297 298 299 301 303 306 309 314 316
279 277 275 277 277 278 278 277 277 275 272 273 271 274 285 283 284 283 284 286 287 288 289 289 289 289 290 291 290 290 291 291 291 293 295 296 297 298 299 302 305 309 311 315
280 276 274 275 275 276 275 277 278 276 275 272 271 276 282 282 284 287 285 286 287 288 288 288 288 289 289 291 291 291 292 290 291 292 294 294 296 296 296 298 301 306 308 312
283 276 276 277 278 278 273 273 277 276 273 274 273 277 282 283 284 286 286 286 287 287 287 287 287 287 289 290 290 290 290 291 291 292 293 293 294 295 294 295 298 299 300 310
280 274 273 275 276 275 275 275 274 273 275 273 278 278 282 284 284 285 285 286 285 285 286 286 286 286 288 289 289 289 289 290 291 290 291 292 292 292 292 292 293 293 293 295
279 274 270 269 274 274 273 275 276 275 276 276 276 276 283 284 285 284 284 285 284 284 285 285 286 286 288 287 286 286 287 288 289 289 288 290 290 289 288 289 289 290 289 289
277 275 271 271 271 271 271 273 275 275 277 277 274 279 283 283 284 284 284 284 284 284 284 284 284 286 286 286 285 284 285 286 286 286 288 289 287 286 286 286 287 287 288 288
276 274 273 271 269 269 280 278 279 277 280 279 280 281 283 283 285 285 285 285 284 285 284 285 285 286 285 285 285 285 285 285 286 287 287 287 286 285 285 285 285 286 287 286
279 276 272 269 267 274 278 275 274 274 279 282 280 282 283 284 284 284 286 286 285 285 285 286 286 285 285 286 285 285 285 285 285 285 285 285 285 285 284 284 285 285 285 285
277 277 276 264 268 272 280 279 279 279 278 284 282 282 283 282 279 284 287 286 285 285 287 286 286 285 285 285 284 284 283 283 282 282 283 284 284 284 283 284 284 284 285 284
271 272 270 268 269 272 279 280 280 276 284 283 283 284 283 281 284 285 286 285 286 285 287 286 285 283 284 283 283 282 282 280 282 283 283 283 284 284 283 283 284 284 284 284
271 270 269 270 267 268 280 278 277 285 283 284 283 284 283 284 284 284 285 285 284 283 285 285 283 283 282 282 282 281 280 281 282 282 282 282 283 283 283 282 282 282 282 281
273 277 272 273 273 280 281 283 284 283 284 284 284 285 284 283 283 284 284 284 282 283 284 284 283 281 281 280 281 280 280 281 281 281 281 282 282 282 282 282 281 281 282 281
273 277 275 275 279 278 280 282 283 283 282 284 284 283 284 282 283 283 284 284 284 285 284 282 283 281 280 281 281 281 282 282 282 282 281 282 282 283 283 283 282 282 282 281
279 276 276 275 279 280 283 283 284 285 284 283 284 283 283 283 282 283 283 283 283 284 284 283 283 282 282 282 281 282 282 282 282 282 282 282 282 282 282 283 283 282 283 283
277 276 276 280 283 284 286 285 286 284 284 284 283 283 282 283 283 283 283 283 282 283 284 282 283 283 283 283 282 281 282 282 283 282 282 281 283 282 282 282 282 285 285 285
Wind_Speed
7 9 10 5 8 6 3 5 8 3 2 13 8 16 12 8 8 12 11 12 14 12 13 15 17 18 20 18 17 17 18 19 19 10 9 11 12 11 12 12 15 16 15 18
3 7 3 2 5 6 5 8 8 11 4 9 8 20 10 7 4 9 11 13 14 12 13 15 17 17 16 17 16 17 13 18 16 14 12 9 10 11 11 12 14 15 17 20
4 4 2 2 5 10 3 8 10 9 15 4 14 6 6 4 5 5 10 11 15 14 12 14 18 17 17 16 13 13 13 15 14 14 13 15 8 6 10 11 11 15 19 19
3 0 3 3 2 7 3 3 13 14 8 5 10 7 3 3 9 6 11 13 16 13 14 15 18 19 19 15 14 13 10 9 11 14 15 17 13 14 5 9 13 15 19 19
3 1 2 3 2 4 6 15 10 5 5 5 1 5 4 4 6 9 10 13 15 14 13 16 18 20 19 15 14 15 14 12 9 9 9 10 15 11 11 15 16 16 16 21
2 2 2 2 2 3 13 6 4 3 3 3 4 5 7 5 5 8 8 12 14 15 17 18 18 18 16 15 15 14 16 16 13 11 11 11 11 13 10 12 14 12 13 14
1 2 1 1 0 1 11 6 3 2 3 4 4 9 14 8 7 8 9 11 13 15 18 19 20 19 18 18 17 14 15 18 17 15 14 12 10 8 13 14 10 15 11 12
4 2 2 3 5 3 5 5 3 6 5 11 6 10 4 6 7 13 11 10 12 17 18 19 21 21 21 21 19 17 17 17 17 17 16 13 11 7 7 10 11 11 13 14
1 3 2 4 2 2 3 3 2 3 1 5 5 7 16 7 6 6 9 10 14 19 19 21 22 21 21 21 20 19 18 16 16 16 14 15 14 11 9 10 12 10 15 17
5 6 2 2 2 4 2 6 2 1 5 8 8 8 11 11 9 10 14 17 19 20 22 22 21 21 20 20 19 18 17 18 17 15 15 13 15 13 10 10 12 14 15 14
4 3 3 1 5 6 5 4 2 2 3 4 8 10 7 13 11 10 14 18 23 21 21 22 21 22 21 20 19 17 17 18 17 15 14 14 12 15 14 12 11 12 11 13
5 3 5 1 2 2 2 4 6 3 5 5 4 16 6 11 9 9 17 24 23 21 22 22 21 22 21 21 17 19 19 17 17 17 14 13 13 11 14 13 10 11 12 10
9 3 4 3 1 0 6 8 8 0 1 9 6 11 3 6 11 20 21 22 23 23 25 22 20 20 20 19 18 17 16 15 16 16 15 14 13 11 11 14 13 12 12 12
8 4 6 7 3 3 5 7 13 10 7 7 20 30 34 27 23 24 24 24 25 24 23 21 20 19 18 18 18 16 16 15 15 15 13 13 13 11 10 12 12 9 11 10
5 6 5 13 15 9 16 13 13 20 24 12 29 21 30 28 26 26 25 24 24 24 24 21 21 18 19 19 18 16 13 11 14 14 12 11 13 11 10 8 11 7 6 6
6 3 2 5 9 13 19 21 17 25 25 27 34 36 32 30 24 19 20 21 22 23 23 23 20 18 18 17 18 17 15 14 13 12 11 11 10 10 9 8 8 6 5 4
9 6 2 5 2 10 14 14 17 10 12 19 16 25 19 18 17 16 20 20 20 21 21 22 17 16 16 17 15 15 14 12 9 11 11 9 8 7 7 7 5 7 4 4
8 6 2 5 4 6 0 2 9 16 14 23 17 20 19 18 17 16 18 16 17 20 20 18 13 17 15 16 14 13 10 9 8 9 9 9 7 6 6 6 5 6 5 5
5 5 3 5 4 12 11 5 9 10 9 18 23 21 21 16 15 15 9 9 15 16 17 14 14 16 15 15 14 12 10 8 8 8 8 7 7 6 4 5 4 4 4 8
6 2 6 3 5 8 1 5 6 3 9 6 13 17 14 5 11 13 11 14 16 14 12 14 15 14 14 15 14 12 9 8 8 7 7 6 5 5 5 6 6 6 5 8
8 6 15 8 8 13 15 8 6 3 3 8 13 11 11 7 8 16 15 14 12 11 13 13 12 12 11 12 12 10 9 9 8 7 6 6 6 6 6 7 6 6 6 9
13 13 9 8 9 16 15 10 11 2 1 5 7 9 10 14 13 13 13 10 11 12 10 9 10 10 9 9 10 9 8 8 7 6 7 8 9 8 6 9 8 9 7 11
8 11 12 19 16 1 20 6 15 2 3 5 6 8 12 13 13 10 9 7 5 8 8 5 6 7 6 6 7 8 8 7 5 5 6 8 9 9 10 10 9 9 9 9
8 7 6 4 12 23 17 18 17 14 16 13 11 12 11 15 12 9 9 6 3 4 4 4 4 5 6 6 6 7 6 5 6 7 7 6 8 10 9 8 8 8 8 8
5 14 9 13 10 10 18 19 19 19 17 17 15 13 15 13 11 10 8 7 5 4 3 3 3 3 4 4 4 5 5 5 5 7 7 8 7 9 9 10 8 7 7 7
11 12 12 12 11 11 9 5 8 16 15 15 14 10 12 12 12 9 8 8 5 5 4 5 4 3 3 1 1 1 3 4 4 5 5 5 5 6 5 7 8 15 12 15
Wind_Direction
33 60 56 7 357 332 297 291 307 285 187 330 317 307 308 321 332 354 338 330 341 335 348 359 1 0 358 350 339 342 349 358 344 249 225 216 213 211 211 214 219 220 216 211
124 71 78 291 320 299 275 312 347 292 271 325 306 304 289 281 314 353 334 330 327 327 331 345 348 353 356 353 348 341 342 331 340 342 316 227 220 218 214 213 210 214 214 215
43 87 77 70 352 348 255 347 342 308 313 225 308 245 254 220 282 320 343 333 335 331 323 333 338 339 341 338 341 341 333 323 317 332 322 338 243 223 220 213 212 207 214 215
57 130 84 79 27 348 296 3 314 302 304 326 356 296 287 260 310 298 340 339 337 328 321 323 329 331 331 321 318 314 313 307 312 327 324 317 306 312 240 220 214 212 208 215
77 219 104 111 20 332 278 327 303 280 273 304 96 282 259 277 305 337 339 327 328 328 317 318 320 321 323 320 313 309 304 295 282 290 309 313 307 295 293 306 221 211 210 209
52 280 250 102 292 256 298 295 213 203 259 256 122 4 267 226 311 319 326 321 321 326 317 313 316 319 321 319 311 309 305 294 295 290 275 272 292 310 299 293 301 232 209 210
307 208 168 266 46 142 355 305 320 309 336 292 166 290 265 257 273 272 293 295 303 319 321 320 316 316 314 315 313 307 309 301 296 288 281 274 273 285 290 281 292 300 231 204
341 235 348 7 52 42 27 348 32 301 311 302 202 239 250 284 274 282 272 266 286 313 320 317 316 315 313 313 310 310 307 302 299 295 288 285 280 266 258 275 275 278 305 229
326 255 92 43 80 305 90 70 20 287 44 287 249 272 272 296 260 240 270 287 303 321 320 318 319 315 312 313 308 308 302 300 297 300 287 284 281 271 275 274 277 275 274 274
122 292 23 81 178 78 1 124 173 109 303 289 283 285 257 280 302 327 312 310 316 318 320 321 320 316 314 310 306 308 303 301 295 299 290 280 283 282 273 269 263 261 277 288
131 159 152 242 202 174 153 170 131 295 220 270 306 281 240 280 292 296 303 306 309 314 314 317 319 316 313 310 307 305 307 305 300 302 301 285 287 296 278 268 274 270 265 276
175 163 259 281 130 329 325 193 189 215 192 223 262 269 292 277 298 305 304 307 308 309 312 316 317 315 315 315 310 306 308 300 300 303 302 289 288 295 293 287 276 281 278 248
177 198 298 207 179 200 218 195 208 231 334 220 241 257 169 234 282 310 309 306 308 312 314 315 317 319 318 315 314 310 312 306 303 304 305 300 296 301 302 301 297 285 276 270
167 187 229 257 355 71 219 190 209 200 227 246 232 279 284 292 301 315 312 307 306 308 311 313 319 319 316 319 317 317 312 308 306 305 303 302 306 315 313 309 303 311 326 266
179 236 208 261 275 248 261 247 199 210 226 241 275 268 279 293 303 305 306 303 306 311 314 320 324 320 321 323 317 318 311 306 310 308 308 317 317 322 316 329 312 319 347 345
182 235 122 263 280 270 268 260 231 235 244 253 260 274 274 281 286 291 301 307 308 312 315 321 321 320 317 320 320 322 323 313 313 308 313 321 323 329 332 333 334 330 46 33
169 186 183 255 324 301 269 244 196 217 223 218 231 247 276 278 290 301 306 307 306 311 317 320 323 315 320 318 321 323 326 324 320 311 314 326 333 335 342 340 3 307 74 81
160 149 197 287 298 241 9 167 170 204 242 220 252 253 259 277 287 296 291 293 310 318 321 322 317 318 319 314 319 316 314 315 315 313 322 337 336 345 360 354 12 328 36 69
170 155 195 266 238 309 283 178 163 184 264 214 235 254 258 275 304 293 256 300 314 319 319 320 318 314 312 318 322 317 316 328 335 335 336 343 339 344 26 30 18 10 43 78
178 282 215 143 251 253 114 179 173 163 271 191 209 236 238 269 302 315 334 329 321 324 324 323 321 317 325 330 330 323 339 343 350 344 346 356 357 8 43 43 43 49 48 88
164 198 218 205 259 276 251 155 144 246 321 156 189 203 207 234 277 299 304 309 320 316 322 329 330 328 332 336 333 341 351 355 351 358 16 32 34 39 37 61 49 70 79 88
169 166 185 185 214 273 161 133 195 218 143 173 194 204 224 246 275 285 290 298 318 321 326 335 334 337 337 346 342 352 5 349 6 24 39 51 54 51 48 58 49 55 71 73
219 198 181 191 206 131 191 211 210 193 215 220 229 221 233 254 274 280 275 298 295 299 309 336 339 342 328 350 0 341 358 355 6 40 52 61 62 60 58 58 57 57 60 68
244 180 231 154 209 233 230 239 254 239 238 244 252 266 259 259 268 259 270 268 271 284 299 323 328 345 345 359 9 346 356 9 24 46 59 79 82 73 66 66 57 66 59 72
181 156 198 253 273 295 270 234 244 251 241 254 257 249 250 249 252 244 252 259 249 266 250 253 292 312 335 342 15 357 348 346 65 65 52 55 57 81 76 70 63 69 59 70
178 177 193 242 184 207 235 184 213 227 232 230 232 243 232 227 241 234 246 249 225 228 218 233 245 260 272 353 23 11 355 6 15 50 67 55 64 68 85 93 84 62 78 94